Date String (YYYY-MM-DD hh:mm:ss) UTC,Instrument flags,absolute air pressure of the measurement (hPa),sample flow rate (lpm),inlet stack bypass flow (lpm),air temperature of the measurement (°C),ambient temperature measured by the external sensor (°C),aerosol sample conditioner tube jacket temperature (°C),OPC LED temperature (°C),internal box temperature (°C),relative humidity of the measurement (%),span deviation,mass concentration of particles derived from Lorenz-Mie calculation of OPC scattering (μg/m³),mass concentration of particles derived from Lorenz-Mie calculation of OPC scattering (μg/m³),mass concentration of particles derived from Lorenz-Mie calculation of OPC scattering (μg/m³)
DateTimeUTC,F1_M11,P_M11,Q1_M11,Q2_M11,T1_M11,T2_M11,T3_M11,T4_M11,T5_M11,U1_M11,ZSPAN_M11,X0_M11,X2_M11,X1_M11
2024-03-04 22:00:00,SystemResetWarning,0821.2,5.01,000.00,020.2,019.7,000.0,028.5,022.0,12.7,0000.0,0010.24,0002.09,0001.09
2024-03-04 22:01:00,SystemResetWarning,0821.2,5.00,000.00,020.3,019.7,000.0,028.6,021.9,12.7,0000.0,0010.25,0002.07,0001.09
2024-03-04 22:02:00,SystemResetWarning,0821.2,5.00,000.00,020.3,019.7,000.0,028.6,022.0,12.7,0000.0,0009.99,0002.02,0001.08
2024-03-04 22:03:00,SystemResetWarning,0821.2,4.99,000.00,020.3,019.7,000.0,028.6,022.0,12.7,0000.0,0010.05,0002.00,0001.07
2024-03-04 22:04:00,SystemResetWarning,0821.2,5.00,000.00,020.3,019.7,000.0,028.6,022.0,12.7,0000.0,0009.47,0002.03,0001.06
2024-03-04 22:05:00,SystemResetWarning,0821.2,5.01,000.00,020.3,019.8,000.0,028.6,022.1,12.6,0000.0,0009.41,0002.03,0001.06
2024-03-04 22:06:00,SystemResetWarning,0821.2,5.01,000.00,020.3,019.8,000.0,028.6,022.1,12.6,0000.0,0009.76,0002.03,0001.04
2024-03-04 22:07:00,SystemResetWarning,0821.1,4.99,000.00,020.4,019.8,000.0,028.6,022.1,12.7,0000.0,0010.18,0002.07,0001.03
2024-03-04 22:08:00,SystemResetWarning,0821.2,5.00,000.00,020.4,019.8,000.0,028.6,022.1,12.8,0000.0,0010.20,0002.03,0001.02
2024-03-04 22:09:00,SystemResetWarning,0821.4,4.99,000.00,020.4,019.8,000.0,028.6,022.1,12.8,0000.0,0010.84,0002.02,0001.02
2024-03-04 22:10:00,SystemResetWarning,0821.4,5.01,000.00,020.4,019.8,000.0,028.7,022.1,12.7,0000.0,0010.63,0002.04,0001.01
2024-03-04 22:11:00,SystemResetWarning,0821.1,5.01,000.00,020.4,019.8,000.0,028.7,022.1,12.6,0000.0,0009.25,0002.09,0001.01
2024-03-04 22:12:00,SystemResetWarning,0821.1,5.00,000.00,020.4,019.8,000.0,028.7,022.1,12.5,0000.0,0009.56,0002.14,0001.02
2024-03-04 22:13:00,SystemResetWarning,0821.2,4.98,000.00,020.4,019.8,000.0,028.7,022.1,12.6,0000.0,0010.17,0002.19,0001.03
2024-03-04 22:14:00,SystemResetWarning,0821.3,5.00,000.00,020.5,019.9,000.0,028.7,022.2,12.7,0000.0,0010.05,0002.20,0001.04
2024-03-04 22:15:00,SystemResetWarning,0821.1,5.01,000.00,020.5,019.9,000.0,028.7,022.2,12.6,0000.0,0009.83,0002.21,0001.06
2024-03-04 22:16:00,SystemResetWarning,0821.2,5.01,000.00,020.5,019.9,000.0,028.7,022.2,12.6,0000.0,0010.35,0002.23,0001.06
2024-03-04 22:17:00,SystemResetWarning,0821.2,5.01,000.00,020.5,019.9,000.0,028.7,022.2,12.5,0000.0,0011.43,0002.27,0001.08
2024-03-04 22:18:00,SystemResetWarning,0821.1,5.00,000.00,020.5,020.0,000.0,028.7,022.2,12.2,0000.0,0011.12,0002.26,0001.10
2024-03-04 22:19:00,SystemResetWarning,0821.1,5.00,000.00,020.5,020.0,000.0,028.7,022.3,12.3,0000.0,0011.26,0002.24,0001.12
2024-03-04 22:20:00,SystemResetWarning,0821.1,5.00,000.00,020.5,020.0,000.0,028.8,022.2,12.3,0000.0,0010.81,0002.18,0001.12
2024-03-04 22:21:00,SystemResetWarning,0821.1,5.00,000.00,020.5,020.0,000.0,028.8,022.2,12.3,0000.0,0010.51,0002.17,0001.14
2024-03-04 22:22:00,SystemResetWarning,0821.1,5.00,000.00,020.6,020.0,000.0,028.8,022.3,12.4,0000.0,0010.48,0002.14,0001.14
2024-03-04 22:23:00,SystemResetWarning,0821.1,5.00,000.00,020.6,020.0,000.0,028.8,022.3,12.3,0000.0,0010.21,0002.15,0001.14
2024-03-04 22:24:00,SystemResetWarning,0821.1,4.99,000.00,020.6,020.1,000.0,028.8,022.3,12.3,0000.0,0009.99,0002.16,0001.15
2024-03-04 22:25:00,SystemResetWarning,0821.1,5.00,000.00,020.6,020.1,000.0,028.8,022.3,12.2,0000.0,0010.17,0002.13,0001.14
2024-03-04 22:26:00,SystemResetWarning,0821.1,4.99,000.00,020.6,020.1,000.0,028.8,022.4,12.3,0000.0,0010.85,0002.08,0001.14
2024-03-04 22:27:00,SystemResetWarning,0821.0,5.00,000.00,020.7,020.1,000.0,028.9,022.4,12.3,0000.0,0010.73,0002.09,0001.16
2024-03-04 22:28:00,SystemResetWarning,0821.0,5.01,000.00,020.7,020.1,000.0,028.9,022.4,12.2,0000.0,0010.46,0002.16,0001.17
2024-03-04 22:29:00,SystemResetWarning,0821.1,5.01,000.00,020.7,020.2,000.0,028.9,022.4,12.2,0000.0,0010.41,0002.17,0001.15
2024-03-04 22:30:00,SystemResetWarning,0821.1,4.99,000.00,020.7,020.2,000.0,028.9,022.4,12.3,0000.0,0010.39,0002.19,0001.13
2024-03-04 22:31:00,SystemResetWarning,0821.1,5.00,000.00,020.7,020.2,000.0,028.9,022.5,12.3,0000.0,0010.37,0002.25,0001.12
2024-03-04 22:32:00,SystemResetWarning,0821.1,4.99,000.00,020.8,020.2,000.0,028.9,022.5,12.4,0000.0,0011.03,0002.26,0001.11
2024-03-04 22:33:00,SystemResetWarning,0821.1,5.00,000.00,020.8,020.2,000.0,028.9,022.5,12.3,0000.0,0012.76,0002.24,0001.09
2024-03-04 22:34:00,SystemResetWarning,0821.1,5.01,000.00,020.8,020.2,000.0,029.0,022.5,12.3,0000.0,0012.87,0002.23,0001.09
2024-03-04 22:35:00,SystemResetWarning,0821.1,5.01,000.00,020.8,020.3,000.0,029.0,022.5,12.4,0000.0,0012.50,0002.18,0001.06
2024-03-04 22:36:00,SystemResetWarning,0821.1,5.00,000.00,020.8,020.3,000.0,029.0,022.5,12.4,0000.0,0012.48,0002.17,0001.05
2024-03-04 22:37:00,SystemResetWarning,0821.1,5.00,000.00,020.8,020.3,000.0,029.0,022.5,12.2,0000.0,0011.94,0002.16,0001.05
2024-03-04 22:38:00,SystemResetWarning,0821.1,5.00,000.00,020.9,020.3,000.0,029.0,022.6,12.2,0000.0,0012.80,0002.19,0001.03
2024-03-04 22:39:00,SystemResetWarning,0821.1,5.00,000.00,020.9,020.3,000.0,029.0,022.6,12.1,0000.0,0012.23,0002.15,0001.01
2024-03-04 22:40:00,SystemResetWarning,0821.1,5.00,000.00,020.9,020.3,000.0,029.1,022.6,12.1,0000.0,0012.01,0002.15,0001.01
2024-03-04 22:41:00,SystemResetWarning,0821.0,5.00,000.00,020.9,020.4,000.0,029.1,022.6,12.0,0000.0,0012.67,0002.18,0001.02
2024-03-04 22:42:00,SystemResetWarning,0821.1,5.00,000.00,020.9,020.4,000.0,029.1,022.6,11.9,0000.0,0012.62,0002.15,0001.01
2024-03-04 22:43:00,SystemResetWarning,0821.1,5.00,000.00,020.9,020.4,000.0,029.1,022.6,11.9,0000.0,0012.16,0002.11,0001.00
2024-03-04 22:44:00,SystemResetWarning,0821.1,4.99,000.00,020.9,020.4,000.0,029.1,022.7,11.9,0000.0,0010.76,0002.16,0001.01
2024-03-04 22:45:00,SystemResetWarning,0821.1,5.01,000.00,021.0,020.4,000.0,029.1,022.7,11.9,0000.0,0010.58,0002.25,0001.01
2024-03-04 22:46:00,SystemResetWarning,0821.1,5.01,000.00,021.0,020.4,000.0,029.1,022.7,12.0,0000.0,0010.66,0002.24,0001.00
2024-03-04 22:47:00,SystemResetWarning,0821.0,5.01,000.00,021.0,020.5,000.0,029.2,022.8,12.0,0000.0,0010.85,0002.32,0001.00
2024-03-04 22:48:00,SystemResetWarning,0821.0,4.99,000.00,021.0,020.5,000.0,029.2,022.8,12.0,0000.0,0010.80,0002.31,0000.99
2024-03-04 22:49:00,SystemResetWarning,0820.9,4.99,000.00,021.0,020.5,000.0,029.2,022.8,11.8,0000.0,0009.89,0002.26,0000.98
2024-03-04 22:50:00,SystemResetWarning,0820.9,5.00,000.00,021.0,020.5,000.0,029.2,022.8,11.8,0000.0,0009.74,0002.20,0000.98
2024-03-04 22:51:00,SystemResetWarning,0821.1,5.00,000.00,021.0,020.5,000.0,029.2,022.8,11.8,0000.0,0009.35,0002.16,0000.99
2024-03-04 22:52:00,SystemResetWarning,0821.1,5.02,000.00,021.0,020.5,000.0,029.3,022.8,11.9,0000.0,0008.80,0002.21,0000.97
2024-03-04 22:53:00,SystemResetWarning,0821.1,5.01,000.00,021.1,020.5,000.0,029.3,022.8,12.0,0000.0,0008.65,0002.14,0000.95
2024-03-04 22:54:00,SystemResetWarning,0821.1,4.98,000.00,021.1,020.5,000.0,029.3,022.8,11.8,0000.0,0009.86,0002.19,0000.95
2024-03-04 22:55:00,SystemResetWarning,0821.1,5.00,000.00,021.1,020.5,000.0,029.3,022.8,11.7,0000.0,0009.52,0002.14,0000.93
2024-03-04 22:56:00,SystemResetWarning,0821.1,5.00,000.00,021.1,020.6,000.0,029.3,022.8,11.6,0000.0,0009.69,0002.01,0000.90
2024-03-04 22:57:00,SystemResetWarning,0821.0,5.01,000.00,021.1,020.6,000.0,029.3,022.9,11.5,0000.0,0009.62,0001.94,0000.90
2024-03-04 22:58:00,SystemResetWarning,0821.1,5.00,000.00,021.1,020.6,000.0,029.3,022.9,11.5,0000.0,0009.44,0001.92,0000.90
2024-03-04 22:59:00,SystemResetWarning,0821.2,5.00,000.00,021.1,020.6,000.0,029.3,022.9,11.6,0000.0,0009.39,0001.92,0000.90
